AirNav   Free Bose QuietComfort 20
 
 537 users online  

2NJ5 Sanduff Farms Landing Field Airport
Phillipsburg, New Jersey, USA

GOING TO PHILLIPSBURG?


FAA INFORMATION EFFECTIVE 05 DECEMBER 2019

Location

FAA Identifier: 2NJ5
Lat/Long: 40-39-07.3580N 075-11-09.6310W
40-39.122633N 075-11.160517W
40.6520439,-75.1860086
(estimated)
Elevation: 350 ft. / 107 m (estimated)
Variation: 12W (1985)
From city: 2 miles S of PHILLIPSBURG, NJ
Time zone: UTC -5 (UTC -4 during Daylight Saving Time)
Zip code: 08865

Airport Operations

Airport use: Private use. Permission required prior to landing
Control tower: no
ARTCC: NEW YORK CENTER
FSS: MILLVILLE FLIGHT SERVICE STATION
Attendance: UNATNDD
Wind indicator: yes
Segmented circle: no

Airport Communications

WX ASOS at ABE (12 nm W): PHONE 610-266-3579
WX AWOS-3 at XLL (15 nm W): 127.875 (610-231-3111)
WX AWOS-3 at UKT (16 nm SW): 119.475 (215-538-7610)
WX AWOS-3 at CKZ (16 nm S): 126.325 (215-257-7291)
WX ASOS at DYL (19 nm S): 118.875 (215-345-0392)

Nearby radio navigation aids

VOR radial/distance  VOR name  Freq  Var
FJCr120/13.0ALLENTOWN VORTAC117.5010W
BWZr253/18.7BROADWAY VOR/DME114.2011W
SBJr292/20.7SOLBERG VOR/DME112.9010W
ETXr088/23.1EAST TEXAS VOR/DME110.2009W
STWr226/25.2STILLWATER VOR/DME109.6011W
ARDr342/27.1YARDLEY VOR/DME108.2010W
PTWr043/30.9POTTSTOWN VORTAC116.5009W
SAXr241/38.5SPARTA VORTAC115.7011W

 
NDB name  Hdg/Dist  Freq  Var  ID
AMBLER020/31.927512WING .. -. --.
CHATHAM274/34.825413WCAT -.-. .- -

Airport Services

Airframe service: NONE
Powerplant service: NONE

Runway Information

Runway 12/30

Dimensions: 2000 x 50 ft. / 610 x 15 m
Surface: turf
Runway edge markings: RUNWAY MARKED WITH WHITE MARKERS.
RUNWAY 12  RUNWAY 30
Traffic pattern: leftleft

Airport Ownership and Management from official FAA records

Ownership: Privately-owned
Owner: SANDUFF FARMS LLC
143 OBERLY ROAD
PHILLIPSBURG, NJ 08865
Phone 201-454-0889
Manager: KENNETH LEA
141 OBERLY ROAD
PHILLIPSBURG, NJ 08865
Phone 908-859-1814

Additional Remarks

FOR CD CTC ALLENTOWN APCH AT 800-728-6322.

Instrument Procedures

There are no published instrument procedures at 2NJ5.

Some nearby airports with instrument procedures:

N43 - Braden Airpark (6 nm NW)
N85 - Alexandria Airport (9 nm SE)
N40 - Sky Manor Airport (11 nm SE)
KABE - Lehigh Valley International Airport (12 nm W)
KXLL - Allentown Queen City Municipal Airport (15 nm W)
KUKT - Quakertown Airport (16 nm SW)
KCKZ - Pennridge Airport (16 nm S)
KDYL - Doylestown Airport (19 nm S)
 
Loc | Ops | Rwys | IFR | FBO | Links
Com | Nav | Svcs | Stats | Notes
Area around 2NJ5 (Sanduff Farms Landing Field Airport)
 
Road maps at: MapQuest Bing Google
 
Aerial photo
No photo
 
Sectional chart

 
Airport distance calculator
Flying to Sanduff Farms Landing Field Airport? Find the distance to fly.

From to 2NJ5

Sunrise and sunset
Times for 10-Dec-2019
 Local
(UTC-5)
 Zulu
(UTC)
Morning civil twilight06:4411:44
Sunrise07:1512:15
Sunset16:3221:32
Evening civil twilight17:0322:03

Current date and time
Zulu (UTC)  10-Dec-2019 06:09:07
Local (UTC-5)  10-Dec-2019 01:09:07
 
METAR
KABE 
12nm W 
100551Z 23007KT 10SM OVC010 12/09 A2973 RMK AO2 SLP068 60008 T01170089 10117 20106 56006
KXLL 
15nm W 
100555Z AUTO 22006KT 10SM OVC010 11/10 A2975 RMK AO2 P0004
KUKT 
16nm SW 
100555Z AUTO 20006KT 10SM OVC008 11/11 A2974 RMK A01
KCKZ 
16nm S 
100555Z AUTO 22007KT 180V250 10SM OVC008 11/11 A2975 RMK AO2
KDYL 
19nm S 
100554Z AUTO 21010KT 10SM OVC010 13/11 A2974 RMK AO2 CIG 008V013 SLP072 60012 T01280106 10128 20106 55007
KSMQ 
24nm E 
ASOS 120.60 908-722-2139
100553Z AUTO VRB04KT 10SM OVC013 12/11 A2972 RMK AO2 SLP065 60009 T01220111 10122 20089 56008 $
TAF
KABE 
12nm W 
100545Z 1006/1106 23007KT P6SM OVC009 WS020/22035KT FM100800 23007KT P6SM OVC015 FM101000 23007KT P6SM VCSH OVC030 TEMPO 1013/1015 4SM -RA OVC015 FM101600 24005KT P6SM -RA OVC020 FM102300 28008KT P6SM -RA OVC025
NOTAMs
Click for the latest NOTAMs
NOTAMs are issued by the DoD/FAA and will open in a separate window not controlled by AirNav.

 

 
 

Would you like to see your business listed on this page?

 If your business provides an interesting product or service to pilots, flight crews, aircraft, or users of the Sanduff Farms Landing Field Airport, you should consider listing it here.  To start the listing process, click on the button below
 
Add a business
 

Other Pages about Sanduff Farms Landing Field Airport

Update a link
 
Copyright © AirNav, LLC. All rights reserved. Privacy Policy  Contact